Weather History for Alexandria, LA

Change the Weather History Date:

Sunday, January 30, 2011

  Actual Average Record
Temperature  
Mean Temperature 58 °F 49 °F  
Max Temperature 63 °F 60 °F 82 °F (2002)
Min Temperature 53 °F 39 °F 15 °F (1966)
Degree Days  
Heating Degree Days 7 16  
Month to date heating degree days 565 480  
Since 1 July heating degree days 1372 1269  
Growing Degree Days 8 (Base 50)    
Moisture  
Dew Point 57 °F    
Average Humidity 92    
Maximum Humidity 100    
Minimum Humidity 84    
Precipitation  
Precipitation 0.32 in 0.22 in 4.60 in (1999)
Month to date precipitation 3.28 5.01  
Year to date precipitation 3.28 5.01  
Snow  
Snow 0.00 in - 6.70 in (1949)
Month to date snowfall 0.0  
Since 1 July snowfall 0.0  
Snow Depth 0.00 in    
Sea Level Pressure  
Sea Level Pressure 30.04 in    
Wind  
Wind Speed 5 mph (SSE)    
Max Wind Speed 13 mph    
Max Gust Speed 18 mph    
Visibility 8 miles    
Events Fog , Rain    
T = Trace of Precipitation, MM = Missing Value Source: NWS Daily Summary

Daily Weather History Graph

Daily Weather History Graph

Search for Another Location

Airport:

Trip Planner

Search our weather history database for the weather conditions in past years. The results will help you decide how hot, cold, wet, or windy it might be!

Date:

Astronomy

Jan. 30, 2011 Rise Set
Actual Time 7:04 AM CST 5:43 PM CST
Civil Twilight 6:38 AM CST 6:08 PM CST
Nautical Twilight 6:09 AM CST 6:38 PM CST
Astronomical Twilight 5:40 AM CST 7:06 PM CST
Moon 4:27 AM CST (1/30) 2:45 PM CST (1/30)
Length of Visible Light 11h 30m
Length of Day
10h 39m
Waning Crescent, 11% of the Moon is Illuminated
Jan 30
Waning Crescent
Feb 2
New
Feb 11
First Quarter
Feb 18
Full
Feb 24
Last Quarter

Hourly Weather History & Observations

Time (CST) Temp. Dew Point Humidity Pressure Visibility Wind Dir Wind Speed Gust Speed Precip Events Conditions
12:53 AM 57.0 °F 53.1 °F 87% 30.05 in 10.0 mi SSE 4.6 mph - N/A   Overcast
1:53 AM 55.9 °F 53.1 °F 90% 30.05 in 10.0 mi SSE 4.6 mph - N/A   Mostly Cloudy
2:53 AM 55.9 °F 53.1 °F 90% 30.04 in 10.0 mi SE 3.5 mph - N/A   Scattered Clouds
3:53 AM 55.9 °F 54.0 °F 93% 30.04 in 10.0 mi SSE 4.6 mph - N/A   Mostly Cloudy
4:53 AM 57.0 °F 54.0 °F 89% 30.05 in 10.0 mi SE 3.5 mph - 0.00 in Rain Light Rain
5:37 AM 57.2 °F 53.6 °F 88% 30.06 in 10.0 mi Calm Calm - 0.00 in   Overcast
5:48 AM 57.2 °F 53.6 °F 88% 30.06 in 10.0 mi SE 4.6 mph - 0.00 in   Overcast
5:53 AM 57.0 °F 54.0 °F 89% 30.07 in 10.0 mi SE 5.8 mph - 0.00 in   Overcast
6:53 AM 55.9 °F 54.0 °F 93% 30.08 in 10.0 mi SE 3.5 mph - 0.00 in   Overcast
7:53 AM 55.9 °F 55.0 °F 97% 30.09 in 8.0 mi SE 3.5 mph - 0.01 in Rain Light Rain
8:53 AM 57.0 °F 55.0 °F 93% 30.10 in 10.0 mi SE 3.5 mph - 0.01 in Rain Light Rain
9:53 AM 59.0 °F 57.0 °F 93% 30.09 in 8.0 mi South 9.2 mph - 0.01 in Rain Light Rain
10:09 AM 59.0 °F 57.2 °F 94% 30.08 in 8.0 mi South 9.2 mph - 0.00 in Rain Light Rain
10:28 AM 60.8 °F 57.2 °F 88% 30.07 in 10.0 mi South 9.2 mph - 0.00 in   Scattered Clouds
10:53 AM 61.0 °F 57.9 °F 90% 30.08 in 10.0 mi South 11.5 mph - 0.00 in   Scattered Clouds
11:06 AM 60.8 °F 57.2 °F 88% 30.06 in 10.0 mi South 9.2 mph - N/A   Mostly Cloudy
11:22 AM 60.8 °F 59.0 °F 94% 30.06 in 10.0 mi South 8.1 mph - N/A   Mostly Cloudy
11:30 AM 60.8 °F 59.0 °F 94% 30.06 in 10.0 mi South 9.2 mph 18.4 mph N/A   Mostly Cloudy
11:53 AM 62.1 °F 57.9 °F 86% 30.06 in 10.0 mi South 6.9 mph - N/A   Mostly Cloudy
12:00 PM 62.6 °F 59.0 °F 88% 30.04 in 10.0 mi South 5.8 mph - N/A   Overcast
12:53 PM 63.0 °F 60.1 °F 90% 30.03 in 10.0 mi South 8.1 mph - 0.01 in   Overcast
1:19 PM 62.6 °F 59.0 °F 88% 30.02 in 10.0 mi SSW 11.5 mph - 0.00 in Rain Light Rain
1:53 PM 62.1 °F 59.0 °F 90% 30.02 in 10.0 mi SSW 9.2 mph - 0.01 in Rain Light Rain
2:00 PM 62.6 °F 59.0 °F 88% 30.01 in 5.0 mi SSW 8.1 mph - 0.02 in Rain Rain
2:17 PM 60.8 °F 60.8 °F 100% 30.00 in 6.0 mi South 8.1 mph - 0.06 in Rain Rain
2:53 PM 61.0 °F 59.0 °F 93% 30.02 in 10.0 mi SSW 9.2 mph - 0.06 in   Overcast
3:53 PM 61.0 °F 59.0 °F 93% 30.02 in 7.0 mi Calm Calm - 0.06 in Rain Light Rain
4:00 PM 60.8 °F 59.0 °F 94% 30.00 in 10.0 mi Calm Calm - 0.00 in Rain Light Rain
4:12 PM 60.8 °F 59.0 °F 94% 29.99 in 8.0 mi East 4.6 mph - 0.01 in Rain Light Rain
4:53 PM 60.1 °F 59.0 °F 96% 30.03 in 4.0 mi Calm Calm - 0.07 in Rain Light Rain
5:07 PM 60.8 °F 57.2 °F 88% 30.02 in 6.0 mi Calm Calm - 0.01 in Rain Light Rain
5:14 PM 60.8 °F 59.0 °F 94% 30.02 in 7.0 mi Calm Calm - 0.02 in Rain Light Rain
5:53 PM 59.0 °F 57.9 °F 96% 30.06 in 6.0 mi Calm Calm - 0.03 in Rain Light Rain
6:16 PM 57.2 °F 57.2 °F 100% 30.05 in 1.8 mi Calm Calm - 0.02 in Rain Light Rain
6:24 PM 57.2 °F 57.2 °F 100% 30.05 in 3.0 mi Calm Calm - 0.02 in Rain Light Rain
6:53 PM 57.9 °F 57.0 °F 97% 30.06 in 7.0 mi Calm Calm - 0.04 in Rain Light Rain
7:53 PM 57.9 °F 57.0 °F 97% 30.03 in 10.0 mi SE 5.8 mph - 0.00 in Rain Light Rain
8:53 PM 57.9 °F 57.0 °F 97% 30.03 in 9.0 mi South 10.4 mph - 0.01 in   Mostly Cloudy
9:01 PM 57.2 °F 57.2 °F 100% 30.01 in 9.0 mi South 10.4 mph - N/A   Overcast
9:53 PM 57.0 °F 55.9 °F 96% 30.04 in 10.0 mi Calm Calm - N/A   Clear
10:51 PM 53.6 °F 53.6 °F 100% 30.03 in 1.8 mi Calm Calm - N/A   Clear
10:53 PM 53.1 °F 53.1 °F 100% 30.04 in 1.5 mi North 3.5 mph - N/A   Clear
11:15 PM 53.6 °F 53.6 °F 100% 30.03 in 0.8 mi NE 3.5 mph - N/A   Mist
11:30 PM 53.6 °F 51.8 °F 94% 30.02 in 0.5 mi East 3.5 mph - N/A Fog Fog
11:41 PM 55.4 °F 53.6 °F 94% 30.02 in 2.0 mi ESE 5.8 mph - N/A   Overcast
11:49 PM 55.4 °F 55.4 °F 100% 30.02 in 5.0 mi ESE 4.6 mph - N/A   Overcast
11:53 PM 55.0 °F 55.0 °F 100% 30.03 in 5.0 mi ESE 4.6 mph - N/A   Overcast